#timestamp,LO_Frequency,Hit,StdDev 
1502013615.3,286046998.0,N,1.0
1502013635.2,286046997.4,N,0.9
1502013655.9,286046997.8,N,0.9
1502013675.7,286046996.8,Y,0.0
1502013695.6,286046998.3,P,0.3
1502013715.4,286046998.4,P,0.3
1502013735.3,286046996.5,P,0.8
1502013755.1,286046999.5,N,1.0
1502013756.0,286046999.5,N,1.0
1502013775.8,286046996.9,Y,0.0
1502013795.7,286046999.0,P,0.3
1502013815.5,286046999.0,P,0.3
1502013835.4,286046999.1,N,0.3
1502013855.2,286046999.1,N,0.3
1502013875.0,286046998.4,Y,0.0
1502013875.9,286046998.4,P,0.3
1502013895.8,286046999.6,N,0.5
1502013915.6,286046998.3,P,0.5
1502013935.5,286046998.3,Y,0.0
1502013955.3,286047000.6,P,0.9
1502013975.1,286047000.7,N,0.9
1502013995.9,286047001.1,N,0.9
1502014015.7,286047001.0,N,0.8
1502014035.6,286047000.8,N,0.8
1502014055.4,286047000.4,N,0.7
1502014075.2,286047001.0,N,0.7
1502014095.1,286047000.7,N,0.7
1502014096.0,286047000.7,N,0.6
1502014115.8,286047000.7,N,0.6
1502014135.7,286047000.9,N,0.6
1502014155.5,286047000.9,N,0.6
1502014175.3,286047001.2,N,0.6
1502014195.2,286047001.2,N,0.6
1502014215.0,286046998.3,Y,0.0
1502014215.9,286046998.3,P,1.2
1502014235.8,286046999.6,N,1.0
1502014255.6,286046996.8,P,1.5
1502014275.4,286046999.3,N,1.3
1502014295.3,286046999.4,N,1.2
1502014315.1,286046996.5,N,1.4
1502014335.8,286046996.7,N,1.5
1502014355.7,286046996.5,N,1.5
1502014375.5,286046999.0,N,1.5
1502014395.4,286046999.6,N,1.4
1502014415.2,286046999.5,N,1.4
1502014435.0,286046996.5,N,1.5
1502014435.9,286046996.5,N,1.5
1502014455.8,286046999.6,N,1.5
1502014475.6,286046996.6,N,1.5
1502014495.5,286046997.2,N,1.5
1502014515.3,286046999.6,N,1.5
1502014535.1,286046996.7,N,1.5
1502014555.9,286046997.4,N,1.4
1502014575.7,286041928.5,Y,0.0
1502014595.6,286046998.8,P,0.3
1502014615.4,286047000.5,N,1.0
1502014635.2,286047001.1,N,1.2
1502014655.1,286046998.6,N,1.2
1502014656.0,286046998.6,N,1.1
1502014675.8,286046998.3,N,1.1
1502014695.7,286046998.3,N,1.0
1502014715.5,286046999.3,N,1.0
1502014735.3,286046999.2,N,0.9
1502014755.2,286046997.0,Y,0.0
1502014775.0,286046999.4,P,0.2
1502014775.9,286046999.4,P,0.2
1502014795.8,286046999.6,N,0.2
1502014815.6,286046999.4,Y,0.0
1502014835.4,286046998.5,P,0.4
1502014855.3,286047000.7,N,0.9
1502014875.1,286046998.5,N,0.9
1502014895.9,286047001.2,N,1.1
1502014915.7,286046998.3,N,1.1
1502014935.5,286047001.2,N,1.2
1502014955.4,286046998.1,N,1.3
1502014975.2,286046998.5,N,1.2
1502014995.1,286047000.9,N,1.2
1502014996.0,286047000.9,N,1.3
1502015015.8,286046998.3,N,1.3
1502015035.6,286047001.1,N,1.3
1502015055.5,286047000.5,N,1.3
1502015075.3,286047000.6,N,1.2
1502015095.2,286047000.4,N,1.2
1502015115.9,286047000.3,N,1.2
1502015135.7,286046999.7,N,1.1
1502015155.6,286046999.8,N,1.1
1502015175.4,286047002.3,N,1.2
1502015195.3,286047002.8,N,1.3
1502015215.1,286047002.3,N,1.4
1502015216.0,286047002.3,N,1.4
1502015235.8,286047002.2,N,1.4
1502015255.7,286047001.9,N,1.4
1502015275.5,286047002.4,N,1.5
1502015295.4,286047002.0,N,1.5
1502015315.2,286047002.1,N,1.5
1502015335.0,286047002.0,N,1.5
1502015335.9,286047002.0,N,1.5
1502015355.8,286047001.6,N,1.4
1502015375.6,286047002.2,N,1.4
1502015395.5,286047001.8,N,1.4
1502015415.3,286047001.5,N,1.3
1502015435.1,286047001.4,N,1.3
1502015455.9,286047001.5,N,1.2
1502015475.7,286047002.2,N,1.2
1502015495.6,286047001.3,N,1.1
1502015515.4,286047001.8,N,1.0
1502015535.2,286047001.3,N,1.0
1502015555.1,286047004.2,Y,0.0
1502015556.0,286047004.2,P,1.4
1502015575.8,286047001.9,N,1.2
1502015595.7,286047002.4,N,1.1
1502015615.5,286047001.3,N,1.1
1502015635.3,286047000.4,N,1.2
1502015655.2,286047002.4,N,1.1
1502015675.0,286047002.8,N,1.1
1502015675.9,286047002.8,N,1.0
1502015695.7,286047002.3,N,1.0
1502015715.6,286047001.6,N,0.9
1502015735.4,286047001.6,N,0.9
1502015755.3,286047002.6,N,0.9
1502015775.1,286047002.8,Y,0.0
1502015795.8,286046998.7,P,1.7
1502015815.7,286046999.4,N,1.5
1502015835.5,286046998.9,N,1.4
1502015855.4,286047000.1,N,1.2
1502015875.2,286047000.2,N,1.1
1502015895.0,286047000.1,N,1.1
1502015895.9,286047000.1,N,1.0
1502015915.8,286047000.0,N,0.9
1502015935.6,286047002.7,N,1.2
1502015955.5,286047002.6,N,1.3
1502015975.3,286047002.2,N,1.4
1502015995.1,286047002.6,N,1.4
1502016015.9,286047002.2,N,1.4
1502016035.7,286047002.8,N,1.5
1502016055.5,286047001.7,N,1.4
1502016075.4,286047003.9,N,1.5
1502016095.2,286047001.7,N,1.5
1502016115.1,286047002.5,N,1.5
1502016116.0,286047002.5,N,1.5
1502016135.8,286047002.0,N,1.4
1502016155.6,286047001.3,N,1.4
1502016175.5,286047004.3,Y,0.0
1502016195.3,286047002.1,P,0.4
1502016215.2,286047002.7,P,0.5
1502016235.9,286047002.8,P,0.6
1502016255.7,286047001.8,Y,0.0
1502016275.6,286047001.2,P,0.5
1502016295.4,286046998.6,N,1.5
1502016315.3,286046998.6,N,1.6
1502016335.1,286047000.8,N,1.5
1502016355.8,286046998.4,N,1.5
1502016375.7,286046998.9,N,1.4
1502016395.5,286046999.0,N,1.4
1502016415.4,286046999.2,N,1.3
1502016435.2,286046999.2,N,1.2
1502016455.0,286046998.6,N,1.2
1502016455.9,286046998.6,N,1.2
1502016475.8,286046998.9,N,1.2
1502016495.6,286046998.9,N,1.1
1502016515.5,286047001.2,N,1.2
1502016535.3,286047000.9,N,1.2
1502016555.1,286047002.8,N,1.4
1502016575.9,286047007.2,Y,0.0
1502016595.7,286047005.4,P,2.8
1502016615.6,286047006.0,N,2.8
1502016635.4,286047003.5,N,2.4
1502016655.2,286047001.8,N,2.3
1502016675.1,286047001.4,N,2.2
1502016676.0,286047001.4,N,2.1
1502016695.8,286047001.7,N,2.0
1502016715.7,286046999.7,N,2.1
1502016735.5,286047001.9,N,2.0
1502016755.3,286047000.1,N,2.0
1502016775.2,286047002.2,N,1.9
1502016795.0,286047002.6,N,1.9
1502016795.9,286047002.6,N,1.8
1502016815.8,286047001.5,N,1.7
1502016835.6,286047001.5,N,1.7
1502016855.4,286047004.3,N,1.7
1502016875.3,286046999.7,N,1.8
1502016895.1,286047001.9,N,1.7
1502016915.8,286047001.5,N,1.7
1502016935.7,286047001.7,N,1.6
1502016955.5,286047001.6,N,1.6
1502016975.4,286047001.8,N,1.6
1502016995.2,286047001.5,N,1.5
1502017015.0,286047001.8,N,1.5
1502017015.9,286047001.8,N,1.5
1502017035.8,286047004.3,N,1.5
1502017055.6,286047001.5,N,1.5
1502017075.5,286047002.2,N,1.5
1502017095.3,286047001.6,N,1.4
1502017115.1,286047001.4,N,1.4
1502017135.9,286047000.8,N,1.3
1502017155.7,286047000.9,N,1.0
1502017175.5,286047001.9,N,1.0
1502017195.4,286047000.5,N,1.0
